Wind_Speed
43 42 41 40 40 38 34 32 32 31 31 30 29 28 27 25 24 23 20 19 18 17 16 16 16 16 17 17 17 17 17 17 17 17 17 18 18 18 19 19 20 20 20 19 19 19 19 19 20
44 44 43 43 42 38 33 32 32 32 31 30 29 28 27 26 25 23 22 20 19 18 17 17 17 17 17 17 18 18 18 18 18 18 18 18 19 19 19 20 20 21 21 21 21 21 20 20 20
45 45 45 45 44 37 30 32 34 33 32 31 30 29 27 26 25 24 23 21 20 19 18 18 17 17 17 17 17 18 18 18 18 19 19 18 18 19 19 20 20 21 21 21 21 22 21 21 22
47 47 48 47 42 34 31 34 35 34 32 32 31 30 28 27 26 25 23 22 21 20 19 19 19 19 18 18 18 18 18 19 19 19 19 19 19 19 19 19 20 20 21 21 22 22 22 22 23
49 49 50 48 40 34 34 36 37 35 34 34 33 31 29 28 27 26 25 24 23 23 22 22 21 21 20 20 20 20 20 20 20 20 20 20 19 19 19 19 20 20 21 21 21 22 22 23 23
51 51 50 46 39 35 35 37 38 36 36 35 34 33 31 30 28 28 27 26 25 25 25 24 24 23 23 22 22 21 21 21 21 21 21 20 20 20 20 20 19 20 20 21 21 22 22 22 23
52 52 50 45 40 38 37 40 40 39 37 37 36 34 32 30 30 29 29 28 27 27 26 26 25 25 24 24 23 23 22 22 21 21 21 21 20 20 21 20 20 20 20 21 21 21 21 22 22
53 53 51 47 42 39 38 42 42 41 39 38 37 35 32 31 31 31 30 29 29 28 27 27 26 26 25 25 24 23 22 22 21 21 21 21 20 21 21 21 21 21 21 21 21 21 21 22 22
53 54 51 46 42 39 40 43 44 43 40 39 38 35 34 33 31 31 30 29 29 28 28 27 26 26 25 25 24 23 23 22 22 22 22 21 21 21 21 22 22 22 22 22 21 21 22 22 23
53 53 49 46 43 41 42 44 45 43 41 40 38 36 34 32 30 29 28 28 28 29 28 27 27 26 25 25 24 24 24 23 23 23 22 22 22 22 23 23 23 23 23 23 23 23 23 23 24
52 51 49 47 45 42 43 45 45 44 42 40 39 36 34 32 30 28 27 28 28 29 28 27 26 26 26 25 25 25 24 24 24 23 23 23 23 23 23 23 24 24 23 24 24 24 24 24 24
51 50 49 48 45 44 44 45 45 44 43 41 40 37 35 32 30 29 28 29 29 29 28 28 27 27 26 26 26 26 25 25 25 24 23 23 23 23 23 24 24 24 24 24 24 25 25 25 26
51 50 49 47 46 45 45 45 45 44 43 42 41 39 36 33 32 31 31 30 30 30 30 29 29 28 28 27 27 27 27 27 26 25 25 24 24 24 24 24 25 25 25 25 26 26 26 26 27
51 51 49 47 46 45 45 46 46 44 44 43 42 40 37 35 33 32 31 30 30 31 31 32 31 31 30 29 28 29 29 28 28 27 26 26 26 26 26 26 26 26 27 27 27 27 27 28 28
51 51 50 48 46 45 46 47 46 44 46 45 43 41 39 37 35 33 32 32 32 32 33 33 33 33 31 30 30 30 30 30 29 29 28 28 28 28 27 27 27 28 28 28 29 29 29 29 30
51 52 51 48 47 46 47 46 46 46 46 46 44 42 41 39 37 35 34 33 33 34 35 35 36 35 34 33 32 32 32 32 31 31 30 30 30 30 30 29 30 30 30 30 30 30 31 31 31
50 51 50 48 47 47 47 46 45 46 47 46 45 44 42 40 38 36 35 35 35 36 37 37 37 36 36 35 35 35 34 33 33 33 32 32 32 32 32 32 32 32 32 32 32 33 33 33 33
47 48 48 47 47 47 47 47 44 46 46 46 46 45 43 41 39 38 38 37 37 37 38 38 38 38 37 37 37 36 36 35 35 35 35 35 34 34 34 34 34 35 34 34 35 35 35 35 35
46 46 46 46 46 46 47 47 44 45 46 46 46 45 44 42 41 40 40 39 39 38 39 39 39 39 39 38 38 37 37 37 37 37 37 37 36 36 36 36 36 37 37 37 37 37 36 36 37
44 44 44 44 45 46 47 46 43 44 46 46 45 45 44 43 42 41 41 40 39 39 39 39 39 40 40 39 39 39 39 40 39 39 39 38 38 38 39 39 39 40 40 40 39 39 39 39 38
41 41 41 41 41 43 44 44 42 42 45 45 45 44 43 42 41 41 41 41 40 40 40 40 40 41 41 41 41 42 42 41 41 40 40 40 41 42 42 42 42 43 42 42 42 42 41 41 41
35 36 36 37 38 39 41 41 39 40 42 44 43 43 42 41 41 41 41 41 40 40 40 41 41 42 42 43 43 43 43 43 42 43 43 44 44 45 45 45 45 45 45 45 45 44 44 43 42
31 32 33 33 35 36 37 38 36 37 39 41 41 41 40 40 40 40 41 41 41 41 41 42 43 43 44 45 45 45 45 45 45 46 46 46 47 47 47 47 47 47 47 47 47 46 45 45 45
30 30 30 31 32 33 33 34 33 34 35 37 38 38 38 39 39 39 40 40 41 41 42 43 43 44 45 46 47 48 48 48 48 48 49 49 50 50 50 50 50 49 49 49 48 48 48 47 47
30 29 29 29 31 31 30 31 30 31 32 33 34 34 35 36 37 37 38 39 40 41 42 43 44 45 47 48 49 49 50 51 51 52 53 53 54 53 53 53 52 52 52 51 51 51 50 49 49
27 27 28 28 28 28 27 27 28 27 28 29 30 31 32 33 34 35 36 37 38 40 41 43 45 46 48 50 51 52 53 54 55 56 56 57 56 56 55 55 54 53 53 52 52 52 51 51 51
26 26 26 26 26 24 24 25 24 23 24 26 27 28 29 30 31 33 34 36 38 40 42 44 45 47 50 52 53 55 56 57 58 59 60 60 59 58 57 56 55 54 54 53 54 53 53 53 52
25 24 25 24 23 22 21 21 20 21 22 24 25 26 27 28 30 32 34 36 38 40 42 44 46 47 49 51 53 55 57 59 60 61 61 61 61 60 59 57 56 55 55 54 53 53 53 53 52
23 23 23 23 22 20 19 18 19 20 21 22 23 25 26 28 30 32 34 36 37 39 41 43 45 47 49 52 54 56 58 59 60 61 61 60 59 59 58 56 54 53 53 52 52 53 53 53 51
22 22 22 22 20 18 17 17 18 20 21 22 23 24 26 28 30 31 33 34 36 38 40 42 44 46 48 51 53 55 57 58 59 60 59 59 58 56 55 53 52 51 51 51 52 52 52 51 51
Wind_Direction
227 226 224 224 224 223 222 222 225 226 228 229 232 235 238 240 243 246 248 250 252 253 253 255 258 262 266 270 273 276 279 281 282 284 284 284 283 283 282 281 281 281 282 283 284 284 284 283 282
227 226 225 224 223 221 219 221 225 226 228 230 232 234 236 238 240 243 244 247 250 253 254 255 257 261 266 270 274 278 281 283 285 286 287 287 286 285 284 284 283 283 282 282 282 283 282 281 280
226 226 225 224 223 219 216 221 224 225 226 228 230 232 235 237 239 240 242 246 250 252 253 255 258 262 266 271 275 279 283 285 287 288 289 289 289 289 289 287 286 284 283 282 282 281 281 279 278
225 225 225 224 222 215 214 221 224 225 225 228 230 231 233 236 239 242 243 246 250 253 256 258 260 264 268 272 276 280 283 286 287 289 290 291 291 292 292 291 289 287 285 284 283 282 281 279 278
224 225 226 225 220 213 215 222 226 226 227 228 231 233 235 238 240 243 245 247 250 254 258 261 263 266 269 272 275 277 281 283 286 288 289 290 292 292 293 292 290 289 288 287 286 284 282 280 279
224 226 227 225 219 214 217 224 228 229 230 232 233 234 237 240 242 244 246 249 251 254 258 262 265 267 269 271 273 276 278 281 283 286 288 289 291 292 292 293 291 290 289 288 287 286 284 282 281
225 226 227 225 219 215 218 225 229 230 231 234 235 237 237 240 242 245 247 249 251 254 257 261 264 267 269 271 273 275 277 279 281 283 286 287 288 290 291 292 291 290 290 289 287 286 284 283 283
224 226 226 224 220 216 219 226 230 231 231 235 237 238 238 240 242 244 246 248 249 252 254 257 261 264 267 270 272 274 276 277 279 282 284 285 286 287 289 290 290 289 288 288 287 286 284 283 283
225 226 225 224 222 219 220 226 230 232 233 235 237 238 238 240 242 244 245 245 246 248 250 252 256 260 264 267 270 273 275 277 279 281 282 283 284 286 287 288 289 288 288 287 286 286 285 283 282
225 226 224 225 224 221 221 226 230 232 233 235 236 237 236 238 240 242 242 242 243 245 247 250 253 257 261 265 268 271 274 276 278 280 281 282 283 284 285 286 287 288 288 287 286 286 286 285 284
225 225 225 225 225 223 222 225 229 232 233 234 235 235 235 235 237 237 239 240 242 244 247 249 252 255 258 262 265 269 272 275 276 277 279 281 282 282 284 285 286 287 288 287 286 286 286 286 285
224 224 225 225 225 223 221 223 227 230 232 233 234 234 233 233 233 234 236 238 240 243 246 248 251 254 257 260 263 266 269 271 273 275 277 279 280 281 282 284 285 286 286 286 287 287 286 286 286
224 224 225 225 225 223 221 222 226 229 231 233 234 235 235 233 233 233 234 236 240 242 245 247 249 251 254 257 260 263 265 267 269 272 274 276 278 280 281 282 283 284 285 285 287 288 287 287 287
223 224 224 225 224 222 221 222 225 227 232 233 235 236 236 236 235 234 235 237 238 240 243 245 247 249 252 254 257 259 262 264 267 270 272 274 276 278 279 280 282 282 282 284 285 286 286 286 287
222 223 224 224 224 222 221 221 224 225 231 234 236 238 238 239 238 238 237 237 237 239 241 244 247 249 251 253 256 258 260 263 265 268 270 272 274 276 278 280 280 281 282 282 283 284 285 286 286
221 222 223 223 224 223 223 221 223 226 230 235 237 239 240 240 241 241 241 240 239 239 241 244 246 249 250 252 254 256 259 262 264 267 269 272 273 275 276 278 278 280 281 282 282 283 285 285 286
221 222 223 224 225 225 225 221 222 227 230 234 238 240 241 242 244 245 245 243 241 240 241 243 245 248 250 251 253 256 259 262 264 266 269 270 272 274 275 276 277 278 280 281 281 282 284 285 285
221 223 224 226 227 227 227 225 224 229 230 234 238 241 243 244 247 248 247 245 243 242 242 244 246 248 250 252 254 256 259 261 263 265 266 268 270 271 273 274 276 277 279 280 281 282 283 283 284
221 223 225 227 228 228 229 229 227 230 232 234 238 242 245 247 248 249 249 248 246 246 245 246 248 249 250 252 254 256 258 259 261 263 265 266 269 271 272 274 275 276 277 278 279 281 281 282 283
221 223 225 228 230 230 230 231 231 231 234 236 238 241 244 247 248 249 250 250 250 250 250 250 251 252 252 254 255 256 257 259 261 263 266 268 270 271 271 272 273 274 275 277 278 279 280 281 282
220 223 226 229 231 232 233 233 233 233 235 237 239 241 244 247 249 250 251 251 252 252 253 253 253 254 255 255 255 257 258 260 261 264 265 266 267 267 269 270 271 272 274 275 276 277 279 279 280
218 221 225 228 230 232 233 235 234 235 236 238 240 242 245 247 248 249 251 252 253 254 254 254 255 256 256 257 258 259 260 261 262 262 263 264 266 267 268 269 270 271 273 274 275 276 277 278 279
217 220 224 227 230 232 234 237 234 236 237 238 241 243 245 247 249 250 251 252 253 254 255 256 257 258 259 259 260 260 261 262 262 263 264 265 266 268 268 269 270 270 271 271 272 273 274 276 278
216 219 222 226 230 232 233 237 236 236 238 240 241 243 245 247 249 251 252 253 254 255 256 258 259 260 261 262 263 263 263 263 263 264 265 265 266 267 267 268 268 268 269 269 270 271 272 274 276
215 219 223 227 230 233 233 237 237 237 238 239 241 243 245 247 249 250 252 253 255 257 258 260 261 262 263 264 265 266 266 266 266 266 266 266 266 266 266 266 265 265 266 266 268 269 271 273 274
215 218 222 225 228 231 231 234 235 234 234 236 238 240 243 245 247 249 252 254 257 258 260 262 263 264 265 266 267 267 267 267 267 267 267 266 265 264 264 263 263 263 264 264 265 268 270 271 273
213 216 219 223 226 226 225 229 229 227 228 230 234 237 240 243 247 250 252 255 258 260 262 264 266 267 268 269 269 269 269 269 268 267 266 265 264 263 262 261 261 261 261 262 263 265 267 269 271
212 213 215 218 220 221 220 222 222 221 224 227 231 235 240 245 249 252 255 258 261 264 266 267 268 269 270 271 271 271 270 269 268 266 265 263 262 261 260 259 259 260 260 260 262 264 266 268 270
209 211 213 215 216 216 216 218 220 223 226 230 234 240 244 249 252 256 260 262 265 267 268 270 271 271 272 273 273 272 272 270 268 265 263 262 260 259 258 258 258 258 259 260 262 263 265 267 269
208 210 212 214 214 214 217 220 223 228 232 236 241 246 250 254 257 260 262 264 266 269 271 273 274 275 276 276 275 274 273 270 268 265 262 259 258 256 255 256 256 257 259 261 262 264 265 266 268
Height
5795 5800 5805 5810 5814 5819 5824 5829 5831 5834 5836 5839 5841 5844 5847 5850 5853 5857 5858 5858 5859 5860 5861 5861 5862 5863 5864 5864 5865 5866 5867 5867 5868 5868 5868 5869 5869 5869 5869 5870 5870 5870 5870 5870 5870 5870 5869 5869 5869
5788 5794 5799 5803 5807 5814 5822 5825 5827 5829 5832 5835 5838 5840 5843 5846 5849 5851 5853 5854 5856 5857 5858 5858 5859 5860 5861 5862 5863 5863 5864 5864 5865 5865 5865 5865 5866 5866 5866 5866 5866 5866 5866 5866 5866 5866 5866 5866 5866
5782 5787 5792 5796 5802 5812 5819 5820 5822 5825 5828 5831 5834 5836 5840 5843 5845 5847 5850 5851 5853 5854 5855 5856 5857 5857 5858 5859 5860 5860 5861 5861 5862 5862 5862 5862 5862 5862 5862 5862 5863 5863 5863 5863 5863 5862 5862 5862 5862
5775 5780 5785 5791 5799 5810 5814 5814 5816 5820 5824 5827 5829 5833 5836 5839 5841 5844 5847 5848 5849 5850 5852 5853 5854 5854 5855 5856 5857 5858 5858 5858 5858 5859 5859 5859 5859 5859 5859 5859 5859 5859 5859 5859 5859 5858 5858 5858 5858
5767 5772 5778 5785 5796 5805 5808 5808 5811 5815 5819 5822 5825 5829 5832 5835 5838 5840 5843 5845 5846 5847 5848 5849 5850 5851 5852 5853 5854 5854 5855 5855 5855 5855 5855 5856 5855 5855 5855 5855 5855 5855 5855 5855 5855 5854 5854 5854 5853
5760 5766 5772 5781 5793 5800 5802 5803 5806 5810 5814 5817 5821 5825 5828 5832 5834 5837 5839 5841 5843 5844 5845 5846 5847 5848 5848 5849 5850 5851 5851 5852 5852 5852 5852 5852 5852 5852 5852 5852 5851 5851 5851 5851 5850 5850 5850 5849 5849
5754 5760 5766 5776 5786 5793 5796 5797 5800 5805 5809 5812 5815 5820 5824 5828 5830 5832 5835 5837 5839 5840 5841 5842 5843 5844 5845 5845 5846 5847 5848 5848 5848 5848 5849 5848 5848 5848 5848 5848 5847 5847 5847 5847 5846 5846 5845 5845 5845
5746 5753 5760 5769 5779 5787 5790 5791 5794 5798 5804 5807 5810 5815 5820 5823 5825 5827 5830 5832 5834 5836 5837 5838 5839 5840 5840 5841 5842 5843 5843 5844 5844 5845 5845 5845 5845 5844 5844 5844 5844 5843 5843 5843 5842 5842 5841 5841 5840
5739 5746 5754 5765 5773 5780 5783 5784 5787 5792 5798 5801 5805 5810 5814 5817 5820 5823 5825 5827 5829 5831 5832 5834 5835 5835 5836 5837 5838 5839 5839 5840 5840 5840 5841 5841 5841 5840 5840 5840 5840 5840 5839 5839 5838 5838 5837 5837 5836
5731 5740 5750 5759 5765 5771 5774 5777 5781 5786 5792 5796 5800 5804 5809 5812 5815 5818 5821 5823 5824 5826 5827 5829 5830 5831 5832 5833 5834 5834 5835 5835 5836 5836 5836 5836 5836 5836 5836 5836 5836 5835 5835 5834 5834 5833 5833 5832 5831
5725 5734 5743 5750 5756 5762 5767 5771 5775 5780 5786 5790 5794 5799 5803 5807 5810 5813 5816 5818 5819 5821 5823 5824 5826 5827 5828 5829 5829 5830 5830 5831 5831 5831 5832 5832 5832 5832 5832 5831 5831 5831 5830 5830 5829 5829 5828 5827 5827
5719 5727 5734 5741 5747 5753 5759 5764 5769 5774 5779 5783 5788 5792 5797 5801 5805 5808 5810 5812 5814 5816 5818 5819 5821 5822 5823 5824 5825 5825 5826 5826 5826 5827 5827 5827 5827 5827 5827 5827 5827 5826 5826 5825 5825 5824 5823 5823 5822
5712 5719 5726 5733 5739 5746 5752 5757 5762 5768 5773 5777 5781 5786 5790 5795 5799 5802 5804 5807 5809 5811 5812 5814 5815 5816 5818 5819 5820 5820 5821 5821 5821 5822 5823 5823 5823 5823 5822 5822 5822 5822 5821 5821 5820 5819 5819 5818 5817
5704 5711 5717 5724 5731 5738 5745 5751 5756 5763 5766 5770 5775 5779 5784 5788 5792 5796 5799 5801 5803 5805 5806 5808 5809 5810 5812 5813 5814 5815 5815 5816 5816 5817 5818 5818 5818 5818 5818 5817 5817 5817 5816 5816 5815 5814 5814 5813 5812
5695 5702 5709 5717 5724 5731 5737 5745 5752 5757 5759 5763 5768 5773 5777 5781 5785 5789 5793 5795 5797 5799 5800 5802 5803 5805 5806 5808 5808 5809 5810 5810 5811 5812 5812 5813 5813 5812 5812 5812 5812 5811 5811 5810 5810 5809 5808 5807 5806
5687 5694 5703 5711 5718 5724 5731 5740 5745 5748 5752 5757 5761 5765 5770 5774 5778 5782 5786 5789 5791 5793 5794 5795 5797 5798 5800 5801 5802 5803 5803 5804 5805 5806 5807 5807 5807 5807 5807 5806 5806 5805 5805 5805 5804 5803 5802 5801 5800
5680 5689 5698 5705 5711 5717 5724 5733 5738 5741 5746 5750 5754 5758 5763 5767 5771 5775 5778 5781 5783 5785 5787 5789 5790 5792 5793 5794 5795 5796 5797 5798 5799 5800 5800 5800 5800 5800 5800 5800 5800 5799 5799 5798 5797 5797 5796 5795 5794
5677 5685 5692 5698 5704 5711 5717 5724 5732 5735 5739 5744 5748 5751 5756 5760 5764 5766 5769 5772 5775 5778 5780 5782 5784 5785 5786 5787 5788 5790 5791 5792 5792 5793 5793 5793 5793 5793 5793 5793 5793 5792 5792 5791 5791 5790 5789 5788 5787
5670 5677 5684 5690 5697 5704 5710 5716 5724 5728 5732 5737 5741 5745 5749 5753 5756 5758 5761 5764 5767 5770 5772 5775 5776 5778 5779 5780 5781 5783 5784 5784 5784 5785 5785 5786 5786 5786 5786 5786 5785 5785 5784 5784 5783 5783 5782 5781 5780
5664 5671 5677 5684 5690 5697 5703 5709 5716 5721 5725 5730 5734 5738 5741 5745 5748 5751 5753 5756 5759 5762 5764 5767 5768 5770 5771 5773 5774 5775 5775 5776 5777 5777 5778 5778 5779 5778 5778 5778 5777 5777 5776 5776 5775 5775 5774 5773 5772
5659 5666 5672 5678 5684 5690 5696 5703 5709 5714 5717 5722 5726 5730 5734 5738 5741 5744 5746 5748 5751 5753 5756 5758 5759 5761 5762 5764 5765 5766 5767 5768 5769 5770 5770 5770 5769 5769 5769 5769 5768 5768 5768 5767 5767 5766 5766 5765 5764
5655 5661 5667 5672 5678 5683 5690 5695 5702 5706 5710 5714 5718 5723 5726 5730 5733 5735 5738 5740 5742 5745 5747 5749 5750 5752 5753 5754 5755 5757 5758 5759 5761 5760 5760 5760 5759 5759 5759 5760 5759 5759 5759 5758 5758 5757 5757 5756 5755
5650 5656 5662 5667 5672 5678 5683 5688 5695 5698 5703 5707 5711 5715 5719 5722 5725 5727 5730 5732 5734 5736 5738 5740 5741 5742 5743 5744 5746 5747 5748 5749 5750 5750 5750 5750 5750 5750 5750 5750 5750 5749 5749 5749 5748 5748 5747 5746 5746
5646 5652 5657 5662 5666 5673 5678 5682 5688 5691 5696 5700 5704 5708 5711 5714 5717 5719 5722 5724 5726 5727 5729 5731 5732 5733 5733 5734 5735 5736 5737 5738 5738 5739 5739 5739 5739 5739 5739 5739 5739 5739 5739 5739 5738 5738 5737 5737 5736
5643 5649 5654 5658 5662 5668 5672 5676 5681 5685 5689 5693 5697 5700 5703 5706 5709 5712 5714 5716 5717 5719 5720 5721 5722 5723 5723 5723 5724 5724 5725 5725 5726 5726 5726 5726 5726 5727 5727 5727 5727 5728 5728 5728 5728 5727 5726 5726 5725
5639 5645 5651 5655 5659 5663 5667 5670 5675 5679 5683 5686 5690 5693 5696 5699 5702 5704 5706 5708 5709 5710 5711 5712 5712 5713 5712 5712 5712 5712 5712 5712 5712 5712 5712 5712 5713 5713 5713 5714 5715 5715 5716 5716 5716 5716 5716 5715 5715
5636 5641 5646 5651 5654 5659 5662 5666 5671 5674 5677 5681 5684 5687 5690 5693 5695 5697 5698 5700 5701 5702 5702 5702 5702 5702 5701 5700 5699 5699 5698 5697 5697 5696 5696 5696 5697 5698 5699 5700 5701 5702 5703 5704 5705 5704 5705 5704 5704
5634 5638 5643 5647 5651 5655 5659 5663 5667 5670 5672 5676 5679 5682 5684 5686 5688 5689 5690 5692 5692 5693 5693 5692 5692 5691 5689 5687 5686 5684 5683 5681 5680 5679 5679 5679 5680 5682 5684 5685 5687 5689 5690 5692 5693 5693 5693 5693 5692
5632 5637 5640 5644 5648 5653 5656 5662 5663 5665 5668 5671 5674 5676 5678 5680 5681 5682 5683 5684 5684 5683 5683 5682 5680 5678 5676 5674 5671 5669 5666 5664 5662 5662 5662 5662 5664 5666 5668 5671 5674 5676 5678 5679 5680 5681 5682 5682 5681
5629 5633 5638 5642 5646 5649 5653 5659 5658 5661 5663 5666 5668 5670 5672 5673 5674 5674 5675 5675 5674 5673 5672 5670 5668 5666 5663 5659 5656 5652 5649 5646 5644 5643 5644 5645 5648 5651 5654 5658 5661 5663 5666 5667 5669 5670 5670 5670 5670